Regional Weather Roundup
Issued by NWS

Home | Current Version | Previous Version | Graphics & Text | Print | Product List | Glossary On
Versions: 1 2 3 4 5 6 7 8 9 10 11 12 13 14 15 16 17 18 19 20 21 22 23 24 25 26 27 28 29 30 31 32 33 34 35 36 37 38 39 40 41 42 43 44 45 46 47 48 49 50
000
ASUS43 KOAX 270402
RWRNE

WEATHER ROUNDUP FOR NEBRASKA
NATIONAL WEATHER SERVICE OMAHA NE
1100 PM CDT WED JUL 26 2017

NOTES: SATELLITE DATA IS BEING USED TO AUGMENT CLOUD COVER ABOVE
       12000 FEET.
       "FAIR" INDICATES FEW OR NO CLOUDS BELOW 12,000 FEET WITH NO
       SIGNIFICANT WEATHER AND/OR OBSTRUCTIONS TO VISIBILITY.


NEZ001>004-019>022-054>056-270500-
NEBRASKA PANHANDLE

CITY           SKY/WX    TMP DP  RH WIND       PRES   REMARKS
SCOTTSBLUFF    CLOUDY    73  60  63 NE6       30.20R
ALLIANCE       CLOUDY    72  61  68 E7        30.20R
CHADRON        MOCLDY    76  52  43 SE6       30.17R
GORDON         MOCLDY    70  58  65 E3        30.19R
KIMBALL        PTCLDY    70  61  72 E7        30.25F
SIDNEY         MOCLDY    71  62  73 E9        30.22S
$$

NEZ057>060-069>072-079>082-270500-
SOUTHWEST NEBRASKA

CITY           SKY/WX    TMP DP  RH WIND       PRES   REMARKS
NORTH PLATTE   CLOUDY    71  66  84 NE6       30.12S
IMPERIAL       CLOUDY    70  62  76 N5        30.14S
LEXINGTON      CLOUDY    73  70  91 NE5       30.10S
MCCOOK         CLOUDY    72  68  87 NE7       30.09S
OGALLALA       CLEAR     71  69  92 CALM      30.15S
$$

NEZ005>010-023>029-035>040-094-270500-
NORTH CENTRAL NEBRASKA

CITY           SKY/WX    TMP DP  RH WIND       PRES   REMARKS
VALENTINE      CLEAR     73  56  54 E6        30.16R
AINSWORTH      CLEAR     68  64  88 CALM      30.15S
BROKEN BOW     CLOUDY    72  69  90 NE6       30.12R
O`NEILL        CLEAR     68  62  82 N6        30.12R
ORD            PTCLDY    70  67  90 NW3       30.09R
THEDFORD       PTCLDY    70  67  92 NE5       30.17R
$$

NEZ041-046>049-061>064-073>077-083>087-270500-
SOUTH CENTRAL NEBRASKA

CITY           SKY/WX    TMP DP  RH WIND       PRES   REMARKS
GRAND ISLAND   MOCLDY    72  72 100 N5        30.07R
AURORA         CLEAR     71  71 100 N3        30.06R FOG
HASTINGS       CLEAR     72  70  93 N6        30.07R
HEBRON         CLOUDY    75  73  91 NE7       30.03S
HOLDREGE       MOCLDY    71  68  92 NE3       30.08S
KEARNEY        CLOUDY    72  70  93 NE7       30.08R
YORK           PTCLDY    72  72 100 N3        30.05S FOG
$$

NEZ011>018-030>034-042>045-270500-
NORTHEAST NEBRASKA

CITY           SKY/WX    TMP DP  RH WIND       PRES   REMARKS
NORFOLK        CLEAR     75  65  70 NE10      30.06R
ALBION         PTCLDY    74  70  87 N5        30.08R
BLAIR          HVY RAIN  73  72  98 CALM      30.03R
COLUMBUS       PTCLDY    72  71  97 N3        30.05R
FREMONT        CLEAR     73  72  98 CALM      30.03R FOG
TEKAMAH        CLEAR     73  71  93 N3        30.01R FOG
WAYNE          CLEAR     71  71  99 NE3       30.06R
$$

NEZ050>053-065>068-078-088>093-270500-
SOUTHEAST NEBRASKA

CITY           SKY/WX    TMP DP  RH WIND       PRES   REMARKS
LINCOLN        MOCLDY    73  72  96 N5        30.02S FOG
OMAHA EPPLEY   PTCLDY    73  70  90 CALM      30.01R
BEATRICE       CLOUDY    74  74  98 NE3       30.01S FOG
FALLS CITY     CLOUDY    75  74  96 CALM      29.97F
NEBRASKA CITY  FOG       75  75 100 NE3       30.01R VSB 3/4
PLATTSMOUTH    MOCLDY    74  73  96 N5        30.02S FOG
$$

NEZ044-045-051>053-067-270500-
OMAHA AREA

CITY           SKY/WX    TMP DP  RH WIND       PRES   REMARKS
OMAHA EPPLEY   PTCLDY    73  70  90 CALM      30.01R
BLAIR          HVY RAIN  73  72  98 CALM      30.03R
FREMONT        CLEAR     73  72  98 CALM      30.03R FOG
MILLARD          N/A     74  74  97 CALM      30.02R FOG
OFFUTT AFB     PTCLDY    72  71  96 N3        30.01R
PLATTSMOUTH    MOCLDY    74  73  96 N5        30.02S FOG
WAHOO          FAIR      71  70  97 N3        30.03R FOG
$$




USA.gov is the U.S. government's official web portal to all federal, state and local government web resources and services.